EN

Hourly Weather Lahar

Today, 29 July, Thursday

Time Temperature Precipitation Wind Pressure Humidity
00:00 +29°C° 1.7 mm 4 mps 735 mmHg 87%
01:00 +28°C° 1.7 mm 5 mps 734 mmHg 88%
02:00 +28°C° 1.7 mm 5 mps 734 mmHg 89%
03:00 +28°C° 1 mm 5 mps 734 mmHg 89%
04:00 +28°C° 1 mm 5 mps 734 mmHg 89%
05:00 +28°C° 1 mm 5 mps 734 mmHg 89%
06:00 +28°C° 1.1 mm 5 mps 734 mmHg 88%
07:00 +28°C° 1.1 mm 5 mps 735 mmHg 86%
08:00 +29°C° 1.1 mm 6 mps 735 mmHg 85%
09:00 +30°C° 0.6 mm 6 mps 735 mmHg 82%
10:00 +30°C° 0.6 mm 7 mps 735 mmHg 79%
11:00 +32°C° 0.6 mm 7 mps 735 mmHg 76%
12:00 +32°C° 0.7 mm 7 mps 735 mmHg 75%
13:00 +32°C° 0.7 mm 7 mps 734 mmHg 74%
14:00 +33°C° 0.7 mm 7 mps 734 mmHg 73%
15:00 +32°C° 0.8 mm 6 mps 734 mmHg 75%
16:00 +32°C° 0.8 mm 6 mps 734 mmHg 77%
17:00 +30°C° 0.8 mm 5 mps 734 mmHg 79%
18:00 +30°C° 0.4 mm 5 mps 734 mmHg 81%
19:00 +29°C° 0.4 mm 5 mps 735 mmHg 84%
20:00 +29°C° 0.4 mm 4 mps 735 mmHg 86%
21:00 +28°C° 0.3 mm 4 mps 735 mmHg 86%
22:00 +28°C° 0.3 mm 4 mps 735 mmHg 87%
23:00 +28°C° 0.3 mm 4 mps 736 mmHg 87%

Tomorrow, 30 July, Friday

Time Temperature Precipitation Wind Pressure Humidity
00:00 +28°C° 0.4 mm 3 mps 735 mmHg 88%
01:00 +28°C° 0.4 mm 3 mps 735 mmHg 89%
02:00 +28°C° 0.4 mm 3 mps 735 mmHg 90%
03:00 +28°C° 0.4 mm 2 mps 735 mmHg 90%
04:00 +28°C° 0.4 mm 2 mps 735 mmHg 90%
05:00 +28°C° 0.4 mm 2 mps 735 mmHg 90%
06:00 +28°C° 0 mm 1 mps 735 mmHg 88%
07:00 +29°C° 0 mm 1 mps 736 mmHg 85%
08:00 +29°C° 0 mm 1 mps 736 mmHg 83%
09:00 +30°C° 0.1 mm 1 mps 736 mmHg 79%
10:00 +31°C° 0.1 mm 2 mps 736 mmHg 75%
11:00 +33°C° 0.1 mm 3 mps 736 mmHg 71%
12:00 +34°C° 0.4 mm 3 mps 736 mmHg 68%
13:00 +35°C° 0.4 mm 3 mps 735 mmHg 65%
14:00 +35°C° 0.4 mm 3 mps 735 mmHg 62%
15:00 +35°C° 0.5 mm 3 mps 735 mmHg 63%
16:00 +35°C° 0.5 mm 3 mps 734 mmHg 64%
17:00 +35°C° 0.5 mm 3 mps 734 mmHg 64%
18:00 +34°C° 0 mm 3 mps 734 mmHg 68%
19:00 +32°C° 0 mm 2 mps 735 mmHg 72%
20:00 +32°C° 0 mm 2 mps 735 mmHg 76%
21:00 +31°C° 0.4 mm 2 mps 735 mmHg 78%
22:00 +31°C° 0.4 mm 2 mps 735 mmHg 79%
23:00 +31°C° 0.4 mm 2 mps 735 mmHg 80%

Day after tomorrow, 31 July, Saturday

Time Temperature Precipitation Wind Pressure Humidity
00:00 +30°C° 0.4 mm 2 mps 735 mmHg 81%
01:00 +30°C° 0.4 mm 2 mps 735 mmHg 82%
02:00 +30°C° 0.4 mm 2 mps 734 mmHg 83%
03:00 +30°C° 0 mm 2 mps 735 mmHg 83%
04:00 +30°C° 0 mm 2 mps 735 mmHg 84%
05:00 +29°C° 0 mm 2 mps 735 mmHg 85%
06:00 +30°C° 0 mm 3 mps 735 mmHg 81%
07:00 +31°C° 0 mm 3 mps 736 mmHg 77%
08:00 +32°C° 0 mm 4 mps 736 mmHg 73%
09:00 +33°C° 0.2 mm 4 mps 736 mmHg 69%
10:00 +34°C° 0.2 mm 5 mps 735 mmHg 65%
11:00 +35°C° 0.2 mm 5 mps 735 mmHg 61%
12:00 +35°C° 0.4 mm 5 mps 735 mmHg 59%
13:00 +36°C° 0.4 mm 5 mps 734 mmHg 58%
14:00 +36°C° 0.4 mm 5 mps 733 mmHg 56%
15:00 +36°C° 0.6 mm 5 mps 733 mmHg 59%
16:00 +35°C° 0.6 mm 5 mps 733 mmHg 61%
17:00 +34°C° 0.6 mm 4 mps 733 mmHg 64%
18:00 +34°C° 1 mm 4 mps 733 mmHg 68%
19:00 +33°C° 1 mm 4 mps 734 mmHg 72%
20:00 +32°C° 1 mm 4 mps 734 mmHg 75%
21:00 +32°C° 0.2 mm 4 mps 734 mmHg 77%
22:00 +32°C° 0.2 mm 4 mps 734 mmHg 78%
23:00 +32°C° 0.2 mm 4 mps 734 mmHg 79%

1 August, Sunday

Time Temperature Precipitation Wind Pressure Humidity
00:00 +30°C° 0 mm 4 mps 734 mmHg 81%
01:00 +30°C° 0 mm 5 mps 733 mmHg 83%
02:00 +29°C° 0 mm 5 mps 733 mmHg 85%
03:00 +29°C° 0.1 mm 5 mps 733 mmHg 86%
04:00 +29°C° 0.1 mm 5 mps 733 mmHg 87%
05:00 +28°C° 0.1 mm 5 mps 733 mmHg 88%
06:00 +29°C° 0 mm 5 mps 734 mmHg 86%
07:00 +29°C° 0 mm 5 mps 734 mmHg 83%
08:00 +30°C° 0 mm 6 mps 734 mmHg 81%
09:00 +30°C° 0 mm 6 mps 734 mmHg 78%
10:00 +32°C° 0 mm 6 mps 734 mmHg 74%
11:00 +33°C° 0 mm 7 mps 734 mmHg 71%
12:00 +34°C° 0.1 mm 6 mps 733 mmHg 68%
13:00 +35°C° 0.1 mm 6 mps 733 mmHg 65%
14:00 +35°C° 0.1 mm 6 mps 732 mmHg 62%
15:00 +35°C° 0.6 mm 6 mps 732 mmHg 64%
16:00 +35°C° 0.6 mm 5 mps 732 mmHg 65%
17:00 +34°C° 0.6 mm 5 mps 732 mmHg 67%
18:00 +33°C° 0.3 mm 5 mps 733 mmHg 70%
19:00 +33°C° 0.3 mm 4 mps 733 mmHg 74%
20:00 +31°C° 0.3 mm 3 mps 733 mmHg 77%
21:00 +30°C° 0 mm 4 mps 734 mmHg 78%
22:00 +30°C° 0 mm 4 mps 734 mmHg 80%
23:00 +30°C° 0 mm 4 mps 734 mmHg 82%

2 August, Monday

Time Temperature Precipitation Wind Pressure Humidity
00:00 +29°C° 0 mm 4 mps 734 mmHg 83%
01:00 +29°C° 0 mm 4 mps 734 mmHg 85%
02:00 +29°C° 0 mm 3 mps 733 mmHg 86%
03:00 +29°C° 0 mm 3 mps 733 mmHg 86%
04:00 +29°C° 0 mm 3 mps 734 mmHg 87%
05:00 +29°C° 0 mm 3 mps 734 mmHg 87%
06:00 +29°C° 0 mm 3 mps 734 mmHg 86%
07:00 +29°C° 0 mm 4 mps 735 mmHg 85%
08:00 +29°C° 0 mm 4 mps 735 mmHg 84%
09:00 +30°C° 0 mm 4 mps 735 mmHg 80%
10:00 +32°C° 0 mm 4 mps 735 mmHg 75%
11:00 +33°C° 0 mm 4 mps 735 mmHg 71%
12:00 +34°C° 0.1 mm 4 mps 735 mmHg 69%
13:00 +34°C° 0.1 mm 4 mps 735 mmHg 68%
14:00 +34°C° 0.1 mm 4 mps 734 mmHg 67%
15:00 +34°C° 0.1 mm 4 mps 734 mmHg 67%
16:00 +34°C° 0.1 mm 3 mps 734 mmHg 68%
17:00 +34°C° 0.1 mm 3 mps 734 mmHg 68%
18:00 +34°C° 0.6 mm 3 mps 734 mmHg 71%
19:00 +32°C° 0.6 mm 2 mps 735 mmHg 74%
20:00 +32°C° 0.6 mm 2 mps 735 mmHg 78%
21:00 +31°C° 0.3 mm 2 mps 735 mmHg 79%
22:00 +31°C° 0.3 mm 2 mps 735 mmHg 81%
23:00 +31°C° 0.3 mm 2 mps 735 mmHg 82%

3 August, Tuesday

Time Temperature Precipitation Wind Pressure Humidity
00:00 +30°C° 0.2 mm 2 mps 735 mmHg 83%
01:00 +30°C° 0.2 mm 2 mps 735 mmHg 85%
02:00 +30°C° 0.2 mm 3 mps 735 mmHg 86%
03:00 +29°C° 1.4 mm 3 mps 735 mmHg 87%
04:00 +29°C° 1.4 mm 3 mps 735 mmHg 88%
05:00 +29°C° 1.4 mm 3 mps 736 mmHg 88%
06:00 +29°C° 0.3 mm 4 mps 736 mmHg 86%
07:00 +30°C° 0.3 mm 4 mps 736 mmHg 83%
08:00 +30°C° 0.3 mm 4 mps 737 mmHg 80%
09:00 +33°C° 0.2 mm 4 mps 737 mmHg 75%
10:00 +34°C° 0.2 mm 3 mps 737 mmHg 70%
11:00 +35°C° 0.2 mm 3 mps 736 mmHg 64%
12:00 +36°C° 0.8 mm 3 mps 736 mmHg 62%
13:00 +36°C° 0.8 mm 3 mps 735 mmHg 60%
14:00 +37°C° 0.8 mm 3 mps 735 mmHg 58%
15:00 +36°C° 1.5 mm 3 mps 735 mmHg 60%
16:00 +36°C° 1.5 mm 3 mps 735 mmHg 62%
17:00 +35°C° 1.5 mm 3 mps 735 mmHg 64%
18:00 +35°C° 0.9 mm 3 mps 735 mmHg 68%
19:00 +34°C° 0.9 mm 3 mps 735 mmHg 71%
20:00 +33°C° 0.9 mm 3 mps 736 mmHg 74%
21:00 +33°C° 1.2 mm 3 mps 736 mmHg 75%
22:00 +33°C° 1.2 mm 4 mps 736 mmHg 77%
23:00 +32°C° 1.2 mm 4 mps 736 mmHg 78%
Show more